Location: ????????
(60.5836°N, 46.8459°E)
Time: 05:58:54
(UTC+00:00)

Daily predictions for brighter satellites

Satellite Brightness Start Highest point End
(mag) Time Altitude Azimuth Time Altitude Azimuth Time Altitude Azimuth
Cosmos 2263 Rocket 4.3 00:49:16 10° SSE 00:53:19 22° ESE 00:57:29 10° NE
Cosmos 2034 Rocket 4.4 00:59:27 48° SE 01:00:57 60° E 01:07:14 10° NNE
Cosmos 1833 Rocket 3.9 01:02:57 33° NNE 01:02:57 33° NNE 01:08:00 10° E
Cosmos 1092 Rocket 4.5 01:13:29 49° SSE 01:13:29 49° SSE 01:17:52 10° SSE
Cosmos 2297 Rocket 2.8 01:16:03 49° NNE 01:16:03 49° NNE 01:20:14 10° NE
Cosmos 839 Rocket 4.3 01:15:31 59° N 01:15:46 60° NNE 01:22:29 10° E
COSMOS 2406 4.0 01:15:57 43° NNE 01:16:25 43° NNE 01:21:51 10° ESE
ADEOS II 4.2 01:11:55 10° N 01:13:08 17° N 01:13:08 17° N
Cosmos 2227 Rocket 2.7 01:20:50 53° NNE 01:20:50 53° NNE 01:25:12 10° NE
ATLAS CENTAUR R/B 3.1 01:23:53 32° ESE 01:23:53 32° ESE 01:26:10 10° ESE
SL-24 R/B - RUBIN 2 4.4 01:23:01 67° NNE 01:23:01 67° NNE 01:28:37 10° ENE
CZ-2D R/B 4.4 01:18:41 10° N 01:19:47 14° N 01:19:47 14° N
Cosmos 1818 4.2 01:24:19 50° NNE 01:24:19 50° NNE 01:28:51 10° ENE
Cosmos 1891 Rocket 4.5 01:24:52 72° N 01:24:52 72° N 01:30:27 10° NNE
Meteor 1-18 Rocket 4.4 01:28:59 61° SSE 01:28:59 61° SSE 01:33:33 10° SSE
Cosmos 1464 Rocket 4.0 01:31:39 65° N 01:31:39 65° N 01:36:56 10° NNE
Cosmos 1607 3.7 01:34:35 85° SW 01:34:45 88° SE 01:41:00 10° ENE
Cosmos 1371 Rocket 4.1 01:35:50 71° ENE 01:35:50 71° ENE 01:40:37 10° NE
ALOS 4.2 01:34:15 10° NNE 01:38:22 29° E 01:42:27 10° SSE
Cosmos 2219 3.8 01:41:05 44° N 01:41:05 44° N 01:45:33 10° NE
Cosmos 2082 Rocket 3.2 01:44:31 33° N 01:45:48 37° NNE 01:51:01 10° E
IDEFIX/ARIANE 42P 3.7 01:41:22 10° NNE 01:44:13 32° N 01:44:13 32° N
ATLAS 5 CENTAUR R/B 1.9 01:47:45 74° ENE 01:47:45 74° ENE 01:52:41 10° ENE
Cosmos 1428 Rocket 4.4 01:44:01 20° NNW 01:48:33 88° W 01:54:53 10° S
CZ-2C R/B 2.8 01:50:58 10° NNE 01:54:19 48° NNE 01:54:19 48° NNE
Cosmos 2221 Rocket 4.1 01:58:24 52° SSE 01:58:24 52° SSE 02:01:45 10° SSE
Cosmos 2084 3.9 02:01:17 59° NE 02:01:17 59° NE 02:05:07 10° ENE
Meteor 2-11 Rocket 4.3 02:01:25 56° WSW 02:02:34 68° WNW 02:08:44 10° NNE
Meteor 1-25 Rocket 4.4 01:58:36 10° S 02:04:14 75° ESE 02:10:00 10° NNE
SJ 16-02 3.7 02:04:46 13° N 02:04:58 13° N 02:07:05 10° NE
Cosmos 2026 Rocket 3.9 02:05:40 37° NNW 02:08:06 65° W 02:14:16 10° S
Cosmos 405 3.9 02:09:14 47° ESE 02:09:14 47° ESE 02:12:05 10° SSE
Cosmos 2082 3.7 02:08:53 59° NW 02:09:07 60° NW 02:14:43 10° NE
Okean O Rocket 3.3 02:05:13 10° NNE 02:09:15 34° E 02:13:17 10° SSE
Meteor 2-4 Rocket 3.5 02:12:10 29° NNW 02:15:06 88° WSW 02:20:32 10° SSE
Cosmos 1624 Rocket 3.9 02:17:05 59° WSW 02:17:57 71° NW 02:23:20 10° NNE
NOSS 3-3 (A) 4.4 02:16:07 44° WNW 02:18:32 68° SW 02:26:27 10° SE
NOSS 3-3 (C) 4.4 02:16:13 44° WNW 02:18:38 68° SW 02:26:33 10° SE
Cosmos 1346 Rocket 3.5 02:15:44 10° S 02:19:30 51° E 02:23:20 10° NNE
Meteor 1-19 Rocket 4.1 02:19:30 53° WNW 02:20:27 61° W 02:25:57 10° S
Cosmos 1340 3.3 02:16:59 10° S 02:20:41 56° E 02:24:24 10° NNE
Cosmos 1869 Rocket 3.5 02:17:13 10° S 02:21:34 83° ESE 02:25:59 10° NNE
ADEOS Rocket 3.4 02:17:15 10° SE 02:23:42 64° ENE 02:29:33 10° NNW
Cosmos 2056 Rocket 3.3 02:23:23 58° W 02:24:08 67° NW 02:29:20 10° NNE
H-2A R/B 3.7 02:21:15 10° NNE 02:23:42 31° N 02:23:42 31° N
MSX 4.0 02:22:21 10° NNE 02:27:53 48° WNW 02:28:36 46° W
Cosmos 2279 Rocket 4.2 02:22:41 10° S 02:28:51 71° E 02:35:06 10° NNE
ADEOS 4.1 02:25:08 10° NNE 02:29:18 39° NW 02:29:18 39° NW
Cosmos 1674 Rocket 3.6 02:28:40 32° N 02:30:40 77° ENE 02:34:59 10° SSE
Resurs 1-4 Rocket 4.3 02:33:21 10° N 02:33:56 11° NNW 02:33:56 11° NNW
USA 234 4.3 02:29:48 10° E 02:35:58 42° SSE 02:42:07 10° SW
Cosmos 1486 Rocket 4.0 02:33:55 34° NNW 02:36:21 86° ENE 02:41:39 10° SSE
Cosmos 2263 Rocket 2.3 02:31:04 11° SSW 02:36:29 77° SE 02:42:04 10° NE
Cosmos 1420 Rocket 3.9 02:35:35 17° SW 02:39:37 86° WNW 02:44:51 10° NNE
Cosmos 1634 Rocket 3.8 02:34:29 10° SSW 02:40:41 75° WNW 02:46:53 10° NNE
CZ-4B DEB 4.4 02:35:45 10° NNE 02:41:19 76° ESE 02:46:52 10° SSW
PAYLOAD A 4.4 02:38:15 10° NNE 02:43:23 43° WNW 02:44:12 40° W
FENGYUN 3A 3.7 02:41:19 10° NNE 02:46:45 79° ESE 02:52:09 10° SSW
Cosmos 2034 Rocket 4.3 02:44:18 30° WSW 02:46:46 42° WNW 02:52:50 10° N
Meteor 1-20 Rocket 4.2 02:40:58 10° SSW 02:46:48 66° WNW 02:52:36 10° NNE
Cosmos 1833 Rocket 2.9 02:44:38 27° NNW 02:47:46 67° NE 02:53:24 10° SE
SL-24 R/B 4.0 02:43:49 10° S 02:48:01 63° WSW 02:49:28 39° NW
Cosmos 1378 Rocket 3.6 02:45:23 21° NNW 02:48:19 84° ENE 02:52:46 10° SSE
CZ-2C R/B 4.1 02:44:00 10° SSE 02:48:44 66° ENE 02:52:57 13° NNW
Cosmos 1602 3.6 02:51:30 38° SW 02:52:43 60° WNW 02:56:33 10° N
Cosmos 1655 Rocket 3.9 02:47:50 10° NNW 02:53:58 62° W 03:00:05 10° S
ADEOS II 4.0 02:52:29 10° N 02:54:04 13° NNW 02:54:04 13° NNW
METEOR-M 4.1 02:51:41 10° NNE 02:57:05 89° WNW 03:02:28 10° SSW
SJ-12 3.8 02:55:10 10° NNE 02:59:18 68° WNW 03:03:23 10° SSW
Cosmos 2297 Rocket 2.9 02:57:52 30° NW 02:59:24 35° NNW 03:04:36 10° NE
ATLAS CENTAUR R/B 1.9 03:00:06 37° WSW 03:00:47 41° SW 03:04:37 10° SSE
CZ-2D R/B 4.3 03:00:02 10° N 03:01:06 11° NNW 03:01:06 11° NNW
COSMOS 2406 3.1 02:58:01 28° NW 03:01:11 76° SW 03:06:52 10° SSE
Cosmos 1484 Rocket 3.0 02:59:58 10° N 03:03:49 47° WNW 03:05:25 29° WSW
Cosmos 2227 4.2 02:59:21 15° SW 03:04:08 70° NW 03:09:56 10° NE
Cosmos 2227 Rocket 2.9 03:02:40 29° NW 03:04:22 35° NNW 03:09:35 10° NE
Meteor 1-13 Rocket 4.2 03:00:37 17° NNW 03:04:48 56° W 03:10:14 10° S
SMAP 4.3 03:00:18 10° NNE 03:04:48 44° E 03:09:16 10° S
IRIDIUM 106 4.3 02:59:36 10° N 03:04:53 84° E 03:10:07 10° S
CZ-4B R/B 3.4 03:00:11 10° NNE 03:05:48 79° ESE 03:11:29 10° SSW
Meteor 1-31 Rocket 4.3 03:03:27 10° N 03:05:16 22° NNW 03:05:16 22° NNW
Meteor 1-4 Rocket 4.4 03:03:45 10° N 03:07:07 29° ENE 03:10:26 10° ESE
CZ-4 R/B 4.3 03:04:48 10° NE 03:07:24 17° E 03:10:01 10° SE
Cosmos 1818 3.8 03:04:57 29° NW 03:07:41 62° NNE 03:13:06 10° E
Cosmos 1844 Rocket 3.9 03:03:15 10° S 03:08:29 43° ESE 03:13:44 10° NE
Cosmos 2142 Rocket 4.5 03:03:05 10° SSW 03:09:26 65° WNW 03:15:48 10° NNE
Timation 1 Rocket 4.3 03:03:38 10° SW 03:09:38 90° WNW 03:15:40 10° NE
Aureole 2 4.5 03:08:44 32° NNW 03:10:22 81° NE 03:13:42 10° SE
Cosmos 1452 Rocket 3.4 03:05:10 10° SW 03:10:28 70° NW 03:15:47 10° NNE
Okean 3 4.2 03:12:43 30° W 03:12:43 30° W 03:16:06 10° SSW
Cosmos 1666 4.0 03:10:12 10° SSE 03:13:47 41° E 03:17:23 10° NNE
CZ-4B R/B 3.8 03:10:59 10° N 03:13:55 29° NW 03:13:55 29° NW
Cosmos 839 Rocket 4.2 03:12:08 25° WNW 03:16:03 74° SW 03:23:15 10° SE
ALOS 2.2 03:11:31 10° NNE 03:16:10 63° WNW 03:20:48 10° SSW
ARIANE 5 R/B 4.5 03:14:02 10° N 03:15:38 12° NNW 03:15:38 12° NNW
Cosmos 44 4.1 03:12:09 10° SSW 03:16:35 48° SE 03:20:51 10° ENE
NOAA 6 3.9 03:13:33 10° NNE 03:18:43 84° WNW 03:23:52 10° SSW
Cosmos 1503 Rocket 4.0 03:15:58 20° NW 03:19:41 80° WSW 03:25:02 10° SSE
Cosmos 371 Rocket 3.6 03:16:02 10° SSW 03:20:52 72° ESE 03:25:46 10° NE
Cosmos 2098 Rocket 4.0 03:17:17 10° N 03:20:54 45° ENE 03:25:21 10° SE
PSLV R/B 4.3 03:17:19 10° N 03:21:10 39° WNW 03:25:01 10° SW
Cosmos 1607 4.1 03:18:43 24° W 03:22:26 60° N 03:28:37 10° ENE
SAR-Lupe-2 3.5 03:20:19 10° SSE 03:23:55 88° WSW 03:26:38 17° NNW
Meteor 1-23 Rocket 4.2 03:19:07 10° NNW 03:24:54 67° W 03:30:37 10° S
Cosmos 968 Rocket 3.4 03:21:23 20° NW 03:24:55 70° WSW 03:30:01 10° SSE
IDEFIX/ARIANE 42P 3.9 03:21:39 10° N 03:25:01 19° NW 03:25:01 19° NW
Cosmos 2219 4.2 03:23:00 22° NW 03:25:24 30° N 03:30:20 10° NE
Cosmos 1908 Rocket 4.3 03:21:24 10° S 03:25:47 58° E 03:30:11 10° NNE
Cosmos 2082 Rocket 2.2 03:26:22 18° NW 03:30:38 81° NE 03:36:18 10° SE
Cosmos 1354 Rocket 4.0 03:27:42 18° NW 03:31:42 74° WSW 03:37:00 10° SSE
MOS 1-B 4.4 03:26:33 10° NNE 03:32:14 57° WNW 03:37:52 10° SW
ATLAS 5 CENTAUR R/B 2.1 03:29:17 24° WNW 03:32:17 65° N 03:37:57 10° E
Cosmos 389 Rocket 2.8 03:29:56 13° NNW 03:33:01 65° ENE 03:36:29 10° SSE
CZ-2C R/B 3.3 03:29:47 10° N 03:33:22 23° NW 03:33:41 22° NW
CZ-2C R/B 3.3 03:28:28 10° SE 03:33:32 52° ENE 03:38:34 10° NNW
Cosmos 1536 2.8 03:29:54 10° S 03:33:59 86° ESE 03:38:04 10° NNE
H-2A R/B 2.8 03:30:16 10° NNE 03:34:01 76° ESE 03:37:48 10° S
Cosmos 724 4.3 03:30:55 17° W 03:35:38 64° NNW 03:41:29 10° ENE
PAYLOAD B 4.2 03:31:03 10° NNE 03:36:30 60° WNW 03:41:55 10° SW
Cosmos 2266 Rocket 4.2 03:31:37 10° NNW 03:37:35 47° W 03:43:24 10° SSW
Cosmos 2084 3.5 03:37:50 23° WNW 03:40:34 81° NNE 03:44:55 10° ESE
Meteor 1-11 Rocket 3.8 03:36:52 10° SSW 03:42:43 84° WNW 03:48:43 10° NNE
Cosmos 405 4.3 03:43:07 21° W 03:43:07 21° W 03:45:43 10° SW
Helios 1A Rocket 3.0 03:40:46 10° N 03:44:42 51° WNW 03:48:37 10° SW
SJ 16-02 3.2 03:41:45 10° NNW 03:45:11 22° NNE 03:48:40 10° E
Okean O Rocket 1.8 03:41:33 10° N 03:45:48 50° WNW 03:50:04 10° SW
Cosmos 1743 4.0 03:43:07 10° SSE 03:46:45 42° E 03:50:24 10° NNE
Cosmos 1777 Rocket 4.2 03:42:20 13° NNW 03:47:00 69° NE 03:52:15 10° SE
Cosmos 1733 Rocket 3.1 03:42:51 10° SSW 03:47:05 52° WNW 03:51:22 10° N
Okean 2 3.3 03:47:34 10° NNW 03:51:43 82° WSW 03:55:48 10° S
Cosmos 1331 Rocket 3.9 03:48:34 10° SW 03:53:45 81° NW 03:59:01 10° NNE
DMSP B5D2-2 4.1 03:49:19 10° SSE 03:54:32 87° ENE 03:59:48 10° NNW
Cosmos 1745 Rocket 4.2 03:48:53 10° NNW 03:55:09 77° ENE 04:01:20 10° SSE
Cosmos 1346 Rocket 3.6 03:52:44 10° WSW 03:56:08 28° WNW 03:59:33 10° N
Cosmos 1340 3.7 03:53:26 10° WSW 03:56:36 25° WNW 03:59:48 10° N
Cosmos 1842 3.5 03:53:36 10° NNW 03:57:33 73° ENE 04:01:30 10° SSE
H-2A R/B 4.2 03:57:39 10° N 04:00:08 15° NW 04:00:16 15° NW
Meteor 1-5 Rocket 4.3 03:56:18 10° SW 04:02:07 59° WNW 04:07:48 10° NNE
Cosmos 1500 3.7 04:01:46 10° SW 04:05:21 37° WNW 04:08:56 10° N
Cosmos 2056 Rocket 4.5 04:03:46 14° WNW 04:07:13 26° NNW 04:11:35 10° NNE
Okean-O 2.8 04:04:02 10° NNE 04:08:31 80° ESE 04:12:57 10° SSW
Cosmos 1110 Rocket 4.0 04:03:32 10° SW 04:08:42 64° NW 04:13:52 10° NNE
ADEOS Rocket 3.6 04:03:29 10° SSW 04:09:36 39° W 04:15:12 10° NNW
Cosmos 1975 Rocket 3.3 04:05:22 10° NNW 04:09:40 49° W 04:13:58 10° S
Cosmos 2279 Rocket 4.5 04:09:00 10° SW 04:14:42 36° WNW 04:20:27 10° N
YAOGAN 6 2.8 04:11:09 10° NNE 04:14:53 80° ESE 04:18:36 10° SSW
YAOGAN 1 3.7 04:12:10 10° NNE 04:16:25 48° E 04:20:37 10° S
Cosmos 2278 Rocket 3.9 04:11:23 10° S 04:16:36 39° ESE 04:21:49 10° NE
Cosmos 2285 Rocket 4.1 04:10:19 10° NW 04:16:39 70° WSW 04:22:54 10° SSE
Cosmos 1025 Rocket 3.2 04:12:33 10° NNW 04:16:57 79° ENE 04:21:17 10° SSE
MOS 1 Rocket 3.9 04:14:46 10° SSE 04:19:27 62° ENE 04:24:27 10° NNW
Cosmos 304 Rocket 3.7 04:14:49 10° SSW 04:19:38 85° NW 04:24:29 10° NNE
USA 234 3.7 04:13:13 10° E 04:19:44 64° S 04:26:14 10° WSW
Cosmos 1782 Rocket 3.5 04:16:22 10° SSW 04:20:49 84° WNW 04:25:14 10° NNE
Cosmos 2263 Rocket 2.6 04:15:33 10° W 04:20:51 42° NNW 04:26:11 10° NE
Aureole 3 Rocket 4.2 04:20:01 10° S 04:26:10 60° E 04:30:35 10° NNE
FENGYUN 3A 4.4 04:22:01 10° N 04:26:43 31° NW 04:31:23 10° WSW
Cosmos 1975 3.2 04:22:56 10° S 04:26:55 68° E 04:30:54 10° NNE
Meteor 2-14 Rocket 4.5 04:23:12 10° NNW 04:29:16 71° W 04:35:19 10° S
Envisat 3.0 04:24:51 10° NNE 04:29:58 80° WNW 04:35:04 10° SSW
MTI 4.4 04:27:04 10° SE 04:30:09 54° ENE 04:33:16 10° N
Okean 2 Rocket 3.6 04:26:35 10° S 04:30:57 66° E 04:35:22 10° NNE
Cosmos 1441 Rocket 3.2 04:27:12 10° SSW 04:31:10 77° WNW 04:35:07 10° NNE
Cosmos 1833 Rocket 3.3 04:26:20 10° NW 04:31:32 41° WSW 04:36:46 10° S
S3M 4.4 04:26:27 10° S 04:32:47 70° E 04:39:04 10° NNE
Sich 1 Rocket 3.6 04:29:12 10° SSW 04:33:42 82° WNW 04:38:12 10° NNE
ATLAS 3B R/B 4.2 04:30:42 10° SSW 04:36:52 41° SE 04:43:02 10° ENE
AQUARIUS 4.4 04:32:40 10° N 04:36:59 46° WNW 04:41:17 10° SW
NOAA 12 4.1 04:31:55 10° NNE 04:37:10 71° WNW 04:42:22 10° SSW
Radarsat Rocket 4.2 04:33:22 10° NNE 04:39:11 52° NW 04:45:34 10° SW
Cosmos 1437 Rocket 2.9 04:36:39 10° NNW 04:40:45 86° ENE 04:44:44 10° SSE
COSMOS 2487 4.4 04:38:17 10° NNW 04:40:57 20° NE 04:43:36 10° E
Cosmos 332 Rocket 4.1 04:36:11 10° WSW 04:40:57 48° NW 04:45:43 10° NNE
SMAP 3.4 04:37:47 10° N 04:42:12 42° WNW 04:46:35 10° SW
SL-27 R/B 3.1 04:38:45 10° NNW 04:42:16 52° NE 04:45:49 10° SE
Meteor 1-4 Rocket 3.0 04:38:43 10° NNW 04:42:20 44° W 04:45:53 10° S
CZ-4 R/B 1.3 04:39:05 10° NNE 04:42:59 86° WNW 04:46:56 10° SSW
Cosmos 1378 3.9 04:40:27 10° NNW 04:43:52 33° W 04:47:16 10° SSW
Cosmos 1553 Rocket 4.0 04:38:03 10° SSW 04:44:15 87° WNW 04:50:36 10° NNE
Cosmos 2297 Rocket 3.3 04:39:58 10° NW 04:44:55 29° N 04:49:52 10° ENE
CZ-4B R/B 3.9 04:41:06 10° N 04:46:00 33° NW 04:50:58 10° WSW
SL-08 ROCKET BODY 4.5 04:42:22 10° NNW 04:48:22 67° W 04:54:14 10° S
H-2A R/B 4.2 04:44:56 10° NNE 04:49:03 26° E 04:53:09 10° SSE
Cosmos 1666 3.4 04:46:05 10° SW 04:49:31 31° WNW 04:52:56 10° N
Cosmos 2227 Rocket 3.3 04:44:57 10° NW 04:49:54 29° N 04:54:51 10° ENE
Cosmos 1818 3.8 04:46:00 10° WNW 04:51:28 69° SW 04:56:52 10° SE
Cosmos 1844 Rocket 2.7 04:46:43 10° WSW 04:52:16 63° NW 04:57:51 10° NE
ALOS 3.6 04:49:42 10° N 04:52:51 18° NW 04:56:01 10° W
Cosmos 1452 Rocket 4.5 04:48:58 10° W 04:53:30 28° NNW 04:58:03 10° NNE
SWARM A 4.4 04:50:41 10° S 04:54:01 79° E 04:57:23 10° N
Cosmos 1844 3.7 04:49:53 10° SW 04:55:40 70° NW 05:01:27 10° NE
Cosmos 1898 Rocket 3.9 04:52:16 10° NNW 04:57:37 63° NE 05:02:54 10° SE
